User: anonymous   Login
Location: Chamerau
(49.1969°N, 12.7525°E)
Time: 22:48:02
(UTC+00:00)
Language:

Cosmos 1125 Rocket - Orbit

View from above orbital plane
View from above orbital plane
View from above satellite
View from above satellite

Ground track
Ground track

The orbit data is extracted from the following two-line orbital elements,

1 11511U 79078B   20336.79395912  .00000125  00000-0  50923-4 0  9990
2 11511  74.0345 152.5308 0014583  87.4423 272.8400 14.36908384159810
Epoch (UTC): 01 December 2020 19:03:18
Eccentricity: 0.0014583
inclination: 74.0345°
perigee height: 758 km
apogee height: 779 km
right ascension of ascending node: 152.5308°
argument of perigee: 87.4423°
revolutions per day: 14.36908384
mean anomaly at epoch: 272.8400°
orbit number at epoch: 15981

The dashed part of the orbit path shows where the satellite is in the earth's shadow,  

DLR